Torna al catalogo

SHIYAN 20A DEB

AttivoLEO
NORAD 55716·DEBRIS·🇨🇳 China

Lanciato Dec 12, 2022 da Jiuquan Satellite Launch Center

Loading…

Prossimi Passaggi (prossime 24 ore)

TLE

AggiornatoSource: Space-Track

Epoca: Sep 14, 2026, 08:33 UTC

1 55716U 22169E   26257.35638153  .00000437  00000-0  20920-3 0  9990
2 55716  59.9952 292.2768 0004843 354.4211   5.6771 14.33027257185756

Traccia SHIYAN 20A DEB in tempo reale con AllMySat

Download on the App Store